AirNav   Air Wisconsin pilot careers
 
 912 users online  

SN22 Hoelting Airport
Basehor, Kansas, USA

GOING TO BASEHOR?


FAA INFORMATION EFFECTIVE 21 JUNE 2018

Location

FAA Identifier: SN22
Lat/Long: 39-06-43.9832N / 094-57-22.1483W
39-06.733053N / 094-57.369138W
39.1122176 / -94.9561523
(estimated)
Elevation: 960 ft. / 293 m (estimated)
Variation: 05E (1985)
From city: 2 miles SW of BASEHOR, KS
Time zone: UTC -5 (UTC -6 during Standard Time)
Zip code: 66012

Airport Operations

Airport use: Private use. Permission required prior to landing
Activation date: 03/1960
Control tower: no
ARTCC: KANSAS CITY CENTER
FSS: WICHITA FLIGHT SERVICE STATION
Attendance: UNATNDD
Wind indicator: yes
Segmented circle: no

Airport Communications

WX ASOS at LWC (14 nm SW): 121.225 (785-749-1309)
WX ASOS at MCI (16 nm NE): PHONE 816-329-2808
WX ASOS at MKC (17 nm E): PHONE 816-329-2843
WX ASOS at IXD (17 nm S): 135.325 (913-780-6987)
WX ASOS at OJC (19 nm SE): PHONE 913-780-6969

Nearby radio navigation aids

VOR radial/distance  VOR name  Freq  Var
MCIr219/14.5KANSAS CITY VORTAC113.2505E
TOPr088/27.6TOPEKA VORTAC117.8005E
ANXr264/38.5NAPOLEON VORTAC114.0007E

Airport Services

Airframe service: NONE
Powerplant service: NONE

Runway Information

Runway 17/35

Dimensions: 2100 x 60 ft. / 640 x 18 m
Surface: turf
RUNWAY 17  RUNWAY 35
Latitude: 39-06.905435N39-06.560672N
Longitude: 094-57.388208W094-57.350067W
Traffic pattern: leftleft
Obstructions: 30 ft. pline, 200 ft. from runwaynone

Airport Ownership and Management from official FAA records

Ownership: Privately-owned
Owner: ALBERT HOELTING
16247 STATE AVE
BASEHOR, KS 66007
Phone 913-724-2443
Manager: ALBERT HOELTING
16247 STATE AVE
BASEHOR, KS 66007
Phone 913-909-7723

Airport Operational Statistics

Aircraft based on the field: 12
Single engine airplanes: 12
    

Instrument Procedures

There are no published instrument procedures at SN22.

Some nearby airports with instrument procedures:

KLWC - Lawrence Municipal Airport (14 nm SW)
KFLV - Sherman Army Airfield (15 nm N)
KMCI - Kansas City International Airport (16 nm NE)
KMKC - Charles B Wheeler Downtown Airport (17 nm E)
KIXD - New Century AirCenter Airport (17 nm S)
KOJC - Johnson County Executive Airport (19 nm SE)
 
Loc | Ops | Rwys | IFR | FBO | Links
Com | Nav | Svcs | Stats | Notes

Kansas City Aviation Department
 
Area around SN22 (Hoelting Airport)
 
Road maps at: MapQuest Bing Google
 
Aerial photo
WARNING: Photo may not be current or correct
Aerial photo of SN22 (Hoelting Airport)
Photo by John Peters
Taken in June 2010

Do you have a better or more recent aerial photo of Hoelting Airport that you would like to share? If so, please send us your photo.

 
Sectional chart

 
Airport distance calculator
Flying to Hoelting Airport? Find the distance to fly.

From to SN22

Sunrise and sunset
Times for 22-Jun-2018
 Local
(UTC-5)
 Zulu
(UTC)
Morning civil twilight05:2310:23
Sunrise05:5510:55
Sunset20:4801:48
Evening civil twilight21:2102:21

Current date and time
Zulu (UTC)  23-Jun-2018 01:31:28
Local (UTC-5)  22-Jun-2018 20:31:28
 
METAR
KLWC 
13nm SW 
230052Z AUTO 01006KT 10SM OVC032 21/17 A2980 RMK AO2 SLP084 T02060172
KMCI 
15nm NE 
230114Z 35003KT 10SM BKN023 BKN037 21/17 A2980 RMK AO2 T02060172
KMKC 
17nm E 
230054Z 33006KT 10SM BKN039 22/16 A2979 RMK AO2 SLP080 T02170161
KIXD 
18nm S 
230053Z 36008KT 10SM SCT019 SCT026 OVC031 21/17 A2981 RMK AO2 SLP085 T02110167
KOJC 
19nm SE 
230104Z 02005KT 10SM OVC030 21/17 A2980 RMK AO2 T02060167
TAF
KMCI 
15nm NE 
222259Z 2223/2318 34007KT P6SM BKN015 TEMPO 2223/2301 BKN035 FM230100 VRB05KT P6SM BKN060 FM231600 13005KT P6SM BKN040
KMKC 
17nm E 
221720Z 2218/2318 31005KT P6SM BKN019 OVC024 FM222100 34007KT P6SM BKN035 FM230100 VRB05KT P6SM BKN060 FM231600 13005KT P6SM BKN040
KIXD 
18nm S 
221720Z 2218/2318 33011KT P6SM FEW021 OVC028 FM222100 34007KT P6SM BKN035 FM230100 VRB05KT P6SM BKN060 FM231600 13005KT P6SM BKN040
NOTAMs
Click for the latest NOTAMs
NOTAMs are issued by the DoD/FAA and will open in a separate window not controlled by AirNav.

 

 
 

Would you like to see your business listed on this page?

 If your business provides an interesting product or service to pilots, flight crews, aircraft, or users of the Hoelting Airport, you should consider listing it here.  To start the listing process, click on the button below
 
Add a business
 

Other Pages about Hoelting Airport

Update a link
 
Copyright © AirNav, LLC. All rights reserved. Privacy Policy  Contact